This is the latest recevied weather packets stored in our database for station/object W5DNT. If no packets are shown the sender has not sent any weather packets the latest 10 day(s).
| Time | Temp. | Humidity | Pressure | Rain* | Wind** | Luminosity | Snow |
|---|---|---|---|---|---|---|---|
| 1777313736 | 31.11° C | 74% | 1007.9 hPa | 0 mm | - | - | - |
| 1777312839 | 30.56° C | 70% | 1008 hPa | 0 mm | - | - | - |
| 1777311930 | 30.56° C | 75% | 1008.2 hPa | 0 mm | - | - | - |
| 1777311032 | 30° C | 73% | 1008.2 hPa | 0 mm | - | - | - |
| 1777310130 | 30° C | 74% | 1008.2 hPa | 0 mm | - | - | - |
| 1777309224 | 29.44° C | 75% | 1008.3 hPa | 0 mm | - | - | - |
| 1777308322 | 29.44° C | 75% | 1008.3 hPa | 0 mm | - | - | - |
| 1777307419 | 28.89° C | 74% | 1008.2 hPa | 0 mm | - | - | - |
| 1777306519 | 28.89° C | 76% | 1008.2 hPa | 0 mm | - | - | - |
| 1777305621 | 28.33° C | 78% | 1008.4 hPa | 0 mm | - | - | - |
| 1777304713 | 28.33° C | 76% | 1008.3 hPa | 0 mm | - | - | - |
| 1777303809 | 27.78° C | 79% | 1008.2 hPa | 0 mm | - | - | - |
| 1777302906 | 27.22° C | 81% | 1008.1 hPa | 0 mm | - | - | - |
| 1777302005 | 26.67° C | 82% | 1008.1 hPa | 0 mm | - | - | - |
| 1777301173 | 26.11° C | 83% | 1008 hPa | 0 mm | - | - | - |
| 1777300256 | 25.56° C | 83% | 1008 hPa | 0 mm | - | - | - |
| 1777299353 | 25° C | 85% | 1008 hPa | 0 mm | - | - | - |
| 1777298453 | 24.44° C | 85% | 1007.9 hPa | 0 mm | - | - | - |
| 1777297549 | 23.89° C | 86% | 1007.9 hPa | 0 mm | - | - | - |
| 1777296651 | 23.89° C | 86% | 1007.7 hPa | 0 mm | - | - | - |
| 1777295742 | 23.33° C | 87% | 1007.7 hPa | 0 mm | - | - | - |
| 1777294841 | 22.78° C | 87% | 1007.6 hPa | 0 mm | - | - | - |
| 1777293937 | - | - | 1007.4 hPa | 0 mm | - | - | - |
| 1777293032 | - | - | 1007.3 hPa | 0 mm | - | - | - |
| 1777292132 | - | - | 1007.2 hPa | 0 mm | - | - | - |
* Rain latest hour (hover to see other rain measurements)
** Current wind speed in m/s (hover to see current wind gust speed)